Regional Weather Roundup
Issued by NWS

Home | Current Version | Previous Version | Text Only | Print | Product List | Glossary On
Versions: 1 2 3 4 5 6 7 8 9 10 11 12 13 14 15 16 17 18 19 20 21 22 23 24 25 26 27 28 29 30 31 32 33 34 35 36 37 38 39 40 41 42 43 44 45 46 47 48 49 50
000
ASUS43 KMKX 181259
RWRWI

WISCONSIN REGIONAL WEATHER ROUNDUP
NATIONAL WEATHER SERVICE MILWAUKEE/SULLIVAN WI
700 AM CST SUN FEB 18 2018

NOTE: "FAIR" INDICATES FEW OR NO CLOUDS BELOW 12,000 FEET WITH NO
SIGNIFICANT WEATHER AND/OR OBSTRUCTIONS TO VISIBILITY.

WIZ001-002-006>008-014>016-023>028-181400-
NORTHWEST WISCONSIN

CITY           SKY/WX    TMP DP  RH WIND       PRES   REMARKS
SUPERIOR ARPT  CLOUDY    13   6  74 NE3       30.01F
ASHLAND        CLOUDY    13   4  67 SE5       30.05F WCI   5
HAYWARD        CLOUDY    16   5  62 E7        29.99F WCI   6
SIREN          FAIR      17   5  60 SE5       29.99F WCI  10
CUMBERLAND     CLOUDY    16   5  62 SE7       29.98F WCI   6
RICE LAKE      MOCLDY    15   7  68 E7        30.02F WCI   6
CHETEK         CLOUDY    14   6  72 E7        30.02F WCI   4
LADYSMITH      CLOUDY    14   8  76 E6        30.04F WCI   5
EAU CLAIRE     NOT AVBL
MENOMONIE      CLOUDY    16   9  75 SE7       30.05R WCI   6
NEW RICHMOND   CLOUDY    19   7  60 SE9       29.98F WCI   7
OSCEOLA        CLOUDY    19   8  63 SE12      30.01F WCI   6
$$

WIZ003>005-009-010-017-018-181400-
NORTH CENTRAL WISCONSIN

CITY           SKY/WX    TMP DP  RH WIND       PRES   REMARKS
MANITOWISH WTR CLOUDY     8   3  82 CALM      30.03R
ARBOR VITAE    CLOUDY     9   5  84 CALM      30.04R
WOODRUFF       CLOUDY     9   5  84 CALM      30.04R
RHINELANDER    CLOUDY     8   5  87 CALM      30.06R
EAGLE RIVER    FAIR       6   2  83 S3        30.05R
LAND O LAKES   CLOUDY     4   0  83 CALM      30.05S
PHILLIPS       CLOUDY    11   6  79 SE5       30.02F WCI   3
TOMAHAWK       CLOUDY     4   1  86 CALM      30.08R
MEDFORD        CLOUDY    11   6  80 SE5       30.05F WCI   2
MERRILL        CLOUDY     8   5  88 CALM      30.10S
$$

WIZ029-030-035-036-043>047-181400-
CENTRAL WISCONSIN

CITY           SKY/WX    TMP DP  RH WIND       PRES   REMARKS
WAUSAU         CLOUDY    10   7  87 E6        30.08F WCI   0
MOSINEE        MOCLDY    10   9  92 VRB3      30.11F
MARSHFIELD     CLOUDY    12   8  84 E5        30.06F WCI   4
STEVENS POINT  MOCLDY     8   8  96 CALM      30.12F
WAUPACA        FAIR      12   8  86 CALM      30.14F
WAUTOMA        MOCLDY    12   9  87 CALM      30.14F
WISC RAPIDS    CLOUDY    15  10  80 CALM      30.12F
CAMP DOUGLAS   FAIR      16  14  93 E3        30.11F
$$

WIZ011>013-019>022-031-037>040-048>050-181400-
NORTHEAST WISCONSIN

CITY           SKY/WX    TMP DP  RH WIND       PRES   REMARKS
ANTIGO         FAIR       2  -1  88 S3        30.09S
SHAWANO        FAIR      15  12  89 CALM      30.15F
OCONTO         FAIR      14  12  90 CALM      30.17S
STURGEON BAY   FAIR      18  14  84 W3        30.18S
GREEN BAY      FAIR      12   9  87 SE5       30.16F WCI   4
MANITOWOC      FAIR      19  16  88 W5        30.19F WCI  12
APPLETON       PTCLDY    16  10  79 CALM      30.12F
CLINTONVILLE   FAIR      10   7  88 CALM      30.14F
OSHKOSH        FAIR      14  12  92 S5        30.15F WCI   6
$$

WIZ032>034-041-042-053>061-181400-
SOUTHWEST WISCONSIN

CITY           SKY/WX    TMP DP  RH WIND       PRES   REMARKS
LA CROSSE      FAIR      19  15  84 SE7       30.09F WCI  10
SPARTA         FAIR      13  12  95 CALM      30.10F
VIROQUA        FAIR      20  20 100 SE8       30.08S WCI  10
BOSCOBEL       FAIR      14  10  84 CALM      30.16S
PRAIRIE DU CHI FAIR      17  15  90 CALM      30.15S
PLATTEVILLE    CLOUDY    16  15  99 CALM      30.14S VSB 1/2
$$

WIZ056-057-062-063-064-067-068-181400-
SOUTH CENTRAL WISCONSIN

CITY           SKY/WX    TMP DP  RH WIND       PRES   REMARKS
REEDSBURG      FAIR      14  14  98 CALM      30.14S
BARABOO/DELLS  FAIR      17  16  94 S3        30.13S
LONE ROCK      NOT AVBL
MINERAL POINT  CLOUDY    19  19 100 SE3       30.12F FOG
MADISON        MOCLDY    17  15  92 SE3       30.15F
MIDDLETON      FAIR      19  17  93 CALM      30.16F
WATERTOWN      FAIR      13  13 100 CALM      30.18S
MONROE         FOG       16  14  93 E5        30.14F VSB<1/4 WCI   9
JANESVILLE     MOCLDY    19  19 100 CALM      30.17F FOG
$$

WIZ051-052-058>065-066-070>072-181400-
SOUTHEAST WISCONSIN

CITY           SKY/WX    TMP DP  RH WIND       PRES   REMARKS
MILWAUKEE      FAIR      21  18  88 SW5       30.22F WCI  15
WAUKESHA       CLEAR     12  10  92 S3        30.20F FOG
MILWAUKEE/TIMM FAIR      18  14  86 S3        30.21S FOG
RACINE         FAIR      20  18  92 W5        30.24F FOG     WCI  13
BURLINGTON     FAIR      15  12  89 CALM      30.19F
KENOSHA        FAIR      19  17  92 SW7       30.22F FOG     WCI  10
FOND DU LAC    FAIR      15  11  83 S6        30.17F WCI   6
SHEBOYGAN      FAIR      16  15  96 S5        30.19F WCI   9
WEST BEND      FAIR      14  12  92 CALM      30.17F
JUNEAU         FOG       12  10  92 E7        30.17F VSB 1/2 WCI   2
$$

LSZ147-162-181400-
LAKE SUPERIOR

STATION/POSITION TIME  TEMP    WIND        PRES    WAVE
                       AIR SEA DIR/SP/G            HT/PER
                 (UTC) (F)     (DEG/KT/KT) (MB)    (FT/S)
DEVILS ISLAND    1200   18     190/  2/  3 1019.3F
SAXON HARBOR     1240   15     180/  4/  8 1017.6F
$$

LMZ867-665-643>646-181400-
LAKE MICHIGAN

STATION/POSITION TIME  TEMP    WIND        PRES    WAVE
                       AIR SEA DIR/SP/G            HT/PER
                 (UTC) (F)     (DEG/KT/KT) (MB)    (FT/S)
NORTHPORT PIER   1240   20                 1021.3S
KEWAUNEE LAKESHO 1230   19     290/  6/  7 1021.3S
SHEBOYGAN LAKESH 1200   22     240/  8/  9 1024.0R
PORT WASHINGTON  1240   21     280/  4/  6 1023.7F
MILWAUKEE LAKESH 1230   24     230/  7/  7   N/A
KENOSHA   LAKESH 1200   23     250/  8/ 10 1024.0
$$

TC  - TEMPERATURE IN CELSIUS
VSB - VISIBILITY IN STATUTE MILES
WCI - WIND CHILL INDEX
HX  - HEAT INDEX





USA.gov is the U.S. government's official web portal to all federal, state and local government web resources and services.